Wind_Speed
28 34 39 32 31 32 38 32 26 23 19 20 26 17 17 18 17 11 11 12 17 17 13 6 10 11 11 13 16 16 15 11 11 9 8 9 8 6 9 10 14 19 23 25
34 39 47 35 37 37 42 33 27 21 21 20 23 22 21 16 17 13 12 13 14 16 13 7 9 13 12 13 11 11 16 16 17 16 15 14 14 12 10 11 14 15 17 22
42 42 48 40 40 37 41 33 28 23 20 19 20 23 19 19 17 11 11 12 10 11 17 17 14 12 12 7 12 10 12 17 19 18 18 19 16 15 16 16 17 18 15 17
43 44 47 42 40 36 40 30 30 27 22 19 20 22 17 15 19 13 12 14 11 11 13 17 16 19 19 16 16 14 16 19 24 23 21 20 21 22 21 21 22 22 22 20
47 46 46 44 42 38 44 33 33 30 26 19 20 22 17 16 19 15 13 13 17 8 9 9 19 13 10 13 18 22 21 25 23 21 18 23 27 29 27 26 25 22 21 22
49 48 49 48 45 45 45 39 37 36 31 25 21 21 19 17 20 14 14 14 17 10 8 2 4 3 6 9 13 16 20 19 18 18 19 23 26 26 27 31 32 28 30 27
45 47 48 48 47 47 49 43 40 39 35 31 21 19 26 18 21 14 18 17 19 20 10 7 4 3 3 12 15 18 24 20 16 15 18 22 22 21 23 26 27 34 34 32
38 41 44 46 46 46 48 43 39 40 38 29 23 22 28 21 22 17 16 20 16 14 17 14 4 1 5 12 23 26 27 21 13 10 15 18 17 19 23 21 20 23 35 35
37 37 38 40 41 39 40 42 43 41 36 30 24 28 33 23 23 16 19 20 16 16 14 19 11 1 7 12 22 28 29 24 13 10 13 17 18 20 18 12 12 14 18 29
35 35 35 37 38 38 39 40 41 36 35 33 28 33 32 25 23 20 22 17 17 20 20 16 10 3 6 13 15 22 33 32 22 14 13 16 17 19 19 17 17 17 18 17
35 32 34 32 34 35 36 37 38 35 34 35 34 39 29 25 25 24 21 15 19 22 20 19 12 2 7 9 14 18 29 30 32 28 24 22 21 21 17 19 18 19 23 23
34 30 28 33 31 31 32 34 36 34 33 35 39 40 27 24 25 27 27 22 23 24 20 21 14 5 3 4 16 25 31 34 28 29 24 24 24 23 20 17 19 21 20 20
32 36 32 32 31 32 31 32 31 32 31 31 38 42 32 28 25 21 26 28 28 24 22 21 17 7 7 2 4 23 28 31 33 28 27 24 23 20 21 27 29 25 25 22
35 37 36 33 33 33 32 29 29 29 29 32 34 42 36 33 27 26 31 31 28 23 24 25 23 21 10 5 13 15 33 33 34 37 31 22 30 33 32 31 32 29 26 27
37 38 37 35 34 29 30 28 28 27 30 33 38 39 35 35 28 27 36 33 29 24 23 30 31 28 29 24 16 20 19 38 30 37 40 41 45 35 41 44 36 32 33 32
38 38 38 37 34 31 28 27 26 27 31 33 37 39 35 34 33 36 34 32 31 28 25 28 27 28 23 12 21 10 7 43 20 38 39 55 42 44 54 46 51 42 39 38
42 40 40 39 36 27 24 26 29 29 31 33 33 35 34 36 37 38 33 35 31 29 26 27 28 29 29 17 15 12 16 33 33 42 42 44 48 50 38 50 58 57 55 52
47 44 42 39 35 25 24 25 29 29 28 31 32 32 32 36 39 37 33 36 32 30 31 25 27 27 27 24 21 22 25 26 29 41 45 41 41 43 52 57 61 60 58 56
50 50 46 41 34 30 27 25 27 28 25 27 30 30 33 37 37 37 36 35 32 33 30 26 24 25 24 20 23 29 28 27 30 34 41 49 48 51 53 56 58 62 62 63
49 51 47 40 33 30 30 28 28 22 21 26 31 32 33 36 35 37 32 35 38 36 27 21 21 19 15 16 8 32 37 36 36 38 43 48 54 57 58 55 57 58 62 70
49 50 45 40 37 31 25 28 27 18 28 27 31 34 35 35 37 32 31 37 36 26 20 19 19 20 15 9 23 38 32 37 37 39 42 39 43 50 60 60 58 55 49 56
49 48 46 42 37 33 32 30 33 32 27 31 28 35 38 37 31 27 26 31 26 24 18 15 14 20 21 26 47 40 51 43 40 33 37 40 44 48 53 54 52 49 42 38
48 50 46 41 37 36 34 31 35 34 26 30 31 34 36 34 32 26 25 32 32 29 29 19 16 14 24 35 39 39 35 35 46 47 47 46 46 50 42 40 40 37 36 38
48 46 45 42 38 36 28 27 24 21 19 32 37 36 37 37 30 27 26 28 33 33 25 21 18 19 14 23 36 38 35 46 43 45 46 48 51 52 48 38 34 36 41 41
45 44 45 45 42 37 36 31 30 33 28 30 34 41 38 35 27 28 35 35 33 33 25 25 25 19 16 24 31 35 40 44 45 44 45 52 57 56 41 39 40 45 50 56
43 43 45 45 42 39 39 36 32 34 30 27 40 41 47 41 28 27 35 39 36 31 30 34 30 30 31 39 41 40 43 49 51 49 56 62 45 45 51 51 49 58 72 75
Wind_Direction
267 276 272 274 280 283 286 294 294 289 291 295 298 303 298 300 295 289 248 253 237 244 245 236 239 252 247 244 258 265 251 245 252 261 259 240 229 260 266 236 227 245 248 238
264 271 273 276 277 279 280 284 283 277 286 290 294 298 296 294 289 290 272 251 248 242 240 253 244 253 250 264 263 272 263 251 245 246 250 245 240 239 240 252 243 238 239 226
265 266 271 273 273 275 276 277 276 281 285 288 284 293 297 295 289 276 265 242 243 246 242 253 261 254 291 298 300 289 288 289 284 271 271 276 267 253 246 247 244 254 241 245
265 265 265 267 268 269 271 274 277 280 280 280 280 286 296 288 288 278 254 239 247 262 249 262 262 257 261 293 301 311 301 307 286 282 283 279 267 253 251 253 252 248 243 254
260 261 263 264 264 265 265 269 266 267 267 270 271 280 295 279 278 277 266 260 245 128 230 242 247 256 284 296 299 296 301 301 290 279 277 272 268 258 255 247 251 251 255 258
262 263 263 263 264 263 263 261 259 260 257 253 256 272 280 271 266 268 266 258 223 216 223 66 28 322 315 302 309 317 304 286 285 283 280 273 265 259 261 257 251 246 250 253
263 262 261 261 260 259 261 261 261 261 261 258 255 260 270 265 270 267 258 250 234 222 232 244 263 15 33 0 357 1 359 332 291 286 286 282 272 265 265 251 258 251 249 248
257 257 258 259 260 261 264 263 261 258 257 257 256 249 261 259 261 268 268 258 241 244 239 257 222 2 343 346 359 2 357 345 316 301 290 279 266 270 271 273 266 263 248 246
259 258 259 260 261 261 260 259 254 252 250 247 243 245 249 253 256 264 267 266 253 228 218 228 233 266 10 9 5 11 9 5 353 339 320 305 301 300 300 283 277 286 273 253
262 264 263 263 261 258 257 257 259 254 249 240 235 240 243 246 252 250 251 266 247 228 232 238 242 279 23 6 20 24 33 29 31 27 8 348 337 315 305 302 291 295 287 279
256 259 261 262 261 258 256 253 254 251 244 240 230 235 235 235 250 255 260 257 250 247 233 235 242 308 28 14 41 34 35 29 22 27 29 20 10 350 331 319 312 304 287 284
257 254 259 260 259 257 255 255 251 249 241 236 234 238 233 228 238 251 255 259 252 251 245 245 240 242 245 341 56 55 36 19 7 3 4 14 13 5 356 349 339 316 303 296
249 250 249 257 259 256 253 252 251 247 242 236 240 243 228 222 233 238 244 245 256 255 242 242 250 203 194 147 358 20 12 355 347 346 329 347 359 357 348 334 331 321 319 303
243 247 252 254 256 259 258 251 251 243 235 232 233 242 233 222 216 233 240 238 246 248 240 237 234 237 210 264 295 344 354 345 343 340 329 329 324 324 324 316 311 310 310 304
248 241 247 251 255 259 258 249 248 241 233 229 226 234 228 229 214 230 239 239 240 244 231 233 238 238 249 265 277 311 305 322 305 316 313 295 298 306 310 306 305 293 304 294
250 240 241 248 248 249 255 250 246 237 225 227 230 229 229 231 221 230 238 242 242 240 237 235 246 250 250 249 282 328 226 220 253 265 261 263 272 288 291 293 296 296 300 304
245 236 232 243 244 244 245 243 239 234 229 220 227 228 226 230 224 230 231 240 238 236 239 239 246 244 249 262 253 277 286 234 234 233 241 262 273 279 287 288 295 301 299 300
240 230 223 232 237 236 240 247 242 236 234 218 216 225 217 229 230 223 228 239 241 238 242 243 248 245 249 259 259 255 249 265 253 247 260 271 282 271 288 290 292 298 296 295
233 224 215 222 233 233 244 247 252 241 234 227 217 219 212 215 221 221 226 239 243 242 241 244 253 254 251 245 247 274 265 271 271 263 264 269 269 274 281 283 287 291 290 290
229 224 217 215 218 230 248 249 248 244 230 230 219 221 217 211 212 219 222 231 237 240 232 228 229 233 218 226 315 307 283 265 267 274 286 282 284 282 281 280 285 284 278 278
219 213 216 218 217 227 240 235 244 244 232 229 219 217 216 199 209 212 222 228 233 233 212 200 202 207 216 264 275 236 263 273 278 282 290 292 291 288 287 292 294 292 288 289
212 209 214 220 222 230 235 236 245 249 244 233 215 213 207 203 214 219 227 227 225 226 201 192 198 218 212 244 255 254 255 268 279 287 299 295 291 296 291 290 289 290 295 297
206 207 213 220 226 236 237 252 247 251 238 232 224 215 216 216 210 210 219 221 211 204 209 220 247 260 249 238 244 243 261 275 291 283 299 302 298 305 301 285 282 284 287 291
206 207 213 220 227 236 231 234 242 229 237 231 223 216 223 215 208 211 222 211 210 216 223 236 255 283 269 253 257 251 263 292 295 296 298 295 294 303 310 299 293 298 301 301
207 209 214 220 228 233 225 232 243 250 260 245 223 201 199 190 199 216 207 208 235 234 245 242 245 234 301 312 297 287 295 301 305 304 294 295 298 307 312 321 306 304 315 317
209 210 214 221 227 232 234 238 246 257 266 245 211 202 190 194 204 217 224 237 236 242 250 244 249 241 279 294 303 302 298 299 301 298 302 304 307 312 319 323 325 322 326 323
Height
10940 10937 10932 10939 10941 10941 10938 10945 10946 10944 10944 10943 10938 10941 10940 10939 10938 10939 10939 10939 10939 10940 10944 10946 10947 10947 10947 10947 10949 10949 10950 10949 10949 10950 10951 10952 10951 10949 10949 10951 10953 10955 10955 10955
10934 10932 10923 10935 10934 10935 10931 10937 10939 10941 10941 10940 10935 10937 10935 10936 10936 10935 10936 10936 10937 10938 10940 10943 10945 10946 10947 10947 10946 10945 10947 10947 10947 10946 10948 10949 10950 10948 10949 10950 10951 10950 10951 10951
10924 10925 10919 10925 10926 10928 10924 10929 10932 10935 10938 10938 10934 10932 10933 10930 10932 10930 10933 10933 10936 10938 10939 10940 10942 10944 10944 10944 10944 10944 10943 10943 10942 10941 10943 10944 10945 10945 10946 10948 10949 10948 10948 10948
10914 10914 10912 10916 10918 10921 10918 10924 10926 10929 10932 10933 10931 10928 10930 10928 10926 10927 10930 10932 10935 10937 10939 10941 10942 10941 10941 10942 10943 10943 10941 10938 10936 10936 10937 10938 10940 10941 10941 10942 10944 10945 10944 10943
10901 10903 10903 10906 10909 10914 10908 10920 10920 10921 10923 10928 10927 10926 10928 10925 10923 10927 10928 10932 10934 10935 10938 10941 10942 10941 10942 10941 10940 10939 10936 10933 10932 10930 10932 10933 10935 10936 10936 10937 10938 10938 10938 10938
10890 10893 10894 10895 10900 10902 10901 10908 10911 10912 10916 10920 10923 10923 10923 10921 10921 10925 10927 10929 10932 10934 10936 10939 10939 10939 10940 10940 10938 10934 10931 10927 10924 10924 10925 10928 10929 10930 10930 10931 10931 10931 10931 10933
10882 10881 10883 10884 10888 10889 10889 10897 10903 10905 10909 10913 10919 10920 10915 10917 10916 10922 10922 10926 10929 10932 10935 10938 10938 10937 10938 10938 10935 10930 10926 10923 10920 10919 10919 10921 10922 10923 10923 10924 10924 10924 10925 10926
10871 10871 10872 10873 10877 10880 10882 10889 10894 10896 10899 10908 10914 10914 10910 10912 10911 10915 10918 10921 10922 10929 10936 10936 10934 10933 10933 10933 10932 10928 10922 10916 10914 10913 10913 10914 10916 10917 10916 10916 10916 10917 10918 10919
10861 10863 10865 10866 10869 10874 10875 10877 10881 10886 10891 10898 10905 10905 10903 10909 10909 10911 10913 10916 10922 10926 10930 10930 10932 10931 10930 10930 10928 10924 10920 10914 10910 10910 10910 10911 10911 10911 10910 10910 10911 10912 10912 10913
10854 10857 10858 10859 10860 10864 10866 10869 10872 10880 10885 10890 10896 10895 10897 10903 10905 10906 10909 10914 10916 10921 10923 10928 10928 10928 10928 10927 10924 10924 10919 10916 10910 10908 10909 10908 10909 10907 10906 10906 10907 10908 10908 10909
10845 10848 10850 10852 10853 10855 10859 10861 10864 10870 10877 10882 10886 10884 10893 10898 10900 10900 10906 10908 10909 10911 10919 10922 10923 10923 10923 10924 10920 10919 10916 10916 10913 10912 10910 10909 10907 10904 10903 10904 10904 10905 10905 10905
10838 10839 10842 10842 10843 10847 10850 10853 10857 10862 10868 10873 10876 10879 10889 10895 10896 10895 10900 10901 10901 10905 10913 10914 10916 10916 10916 10918 10915 10913 10915 10915 10912 10909 10907 10904 10904 10904 10904 10904 10904 10903 10902 10901
10829 10829 10832 10833 10836 10837 10840 10845 10850 10855 10861 10868 10871 10873 10881 10885 10888 10892 10894 10894 10896 10902 10905 10907 10910 10912 10909 10911 10913 10911 10911 10912 10912 10910 10905 10903 10900 10900 10900 10902 10902 10900 10900 10898
10820 10821 10823 10825 10826 10830 10833 10838 10842 10847 10852 10858 10862 10862 10874 10877 10880 10885 10887 10889 10889 10894 10899 10901 10903 10906 10906 10908 10908 10907 10905 10907 10908 10912 10908 10897 10898 10896 10895 10897 10896 10895 10893 10893
10810 10812 10815 10816 10819 10823 10825 10829 10833 10838 10844 10849 10850 10852 10862 10870 10875 10875 10875 10880 10882 10886 10892 10892 10896 10899 10901 10903 10905 10904 10900 10904 10912 10913 10908 10904 10895 10891 10887 10888 10889 10888 10887 10887
10800 10804 10806 10807 10812 10815 10817 10821 10824 10828 10834 10841 10844 10847 10853 10862 10865 10863 10870 10875 10877 10881 10885 10888 10891 10894 10897 10899 10903 10906 10905 10911 10911 10911 10907 10898 10890 10888 10881 10880 10880 10881 10882 10882
10789 10793 10796 10799 10802 10809 10812 10813 10815 10818 10823 10831 10838 10843 10848 10852 10856 10854 10860 10866 10872 10876 10881 10885 10887 10889 10892 10895 10900 10907 10908 10900 10894 10895 10895 10893 10887 10880 10876 10871 10868 10871 10870 10871
10776 10780 10785 10790 10795 10803 10803 10804 10807 10813 10817 10825 10831 10836 10841 10845 10848 10850 10854 10858 10865 10872 10875 10880 10882 10885 10888 10892 10895 10894 10892 10893 10892 10889 10886 10881 10880 10875 10870 10862 10856 10854 10853 10855
10761 10768 10774 10782 10790 10796 10797 10799 10801 10807 10814 10820 10825 10830 10834 10838 10844 10847 10849 10852 10859 10862 10867 10875 10878 10881 10885 10891 10894 10891 10886 10880 10878 10879 10878 10872 10868 10864 10859 10853 10853 10849 10845 10842
10752 10762 10769 10774 10783 10789 10788 10792 10796 10804 10810 10812 10817 10821 10828 10833 10837 10838 10844 10847 10849 10852 10859 10864 10870 10876 10881 10887 10894 10883 10882 10871 10867 10865 10863 10860 10855 10858 10853 10847 10842 10838 10836 10832
10741 10754 10766 10771 10775 10779 10781 10786 10791 10799 10798 10803 10808 10812 10818 10823 10826 10834 10839 10842 10844 10846 10849 10852 10859 10867 10872 10878 10885 10866 10868 10861 10857 10857 10856 10852 10849 10846 10842 10835 10830 10826 10820 10817
10735 10748 10758 10766 10771 10773 10775 10781 10785 10789 10793 10794 10801 10805 10811 10816 10821 10826 10831 10834 10837 10843 10847 10848 10851 10857 10856 10855 10853 10857 10852 10846 10845 10844 10843 10839 10837 10832 10828 10821 10816 10813 10810 10807
10729 10740 10751 10760 10764 10767 10771 10776 10779 10782 10787 10790 10793 10796 10803 10808 10814 10820 10822 10825 10826 10828 10831 10832 10837 10846 10846 10846 10847 10845 10840 10837 10833 10832 10829 10826 10823 10821 10812 10805 10801 10799 10797 10794
10724 10735 10744 10752 10757 10760 10765 10770 10773 10776 10779 10781 10784 10786 10791 10797 10804 10810 10814 10818 10817 10818 10819 10823 10823 10827 10832 10836 10837 10834 10831 10828 10824 10821 10818 10814 10809 10808 10804 10796 10791 10790 10786 10781
10721 10729 10737 10742 10747 10753 10758 10765 10766 10767 10771 10775 10781 10783 10788 10794 10796 10801 10804 10811 10811 10811 10812 10813 10816 10818 10819 10820 10820 10818 10815 10811 10807 10808 10806 10801 10798 10795 10790 10784 10781 10778 10772 10767
10716 10722 10729 10735 10742 10748 10752 10756 10760 10762 10765 10769 10774 10776 10782 10788 10790 10794 10798 10802 10806 10807 10806 10807 10810 10812 10813 10810 10806 10801 10799 10798 10799 10795 10794 10791 10786 10782 10774 10767 10763 10759 10752 10746